Lapse_Rate
7.9 7.8 7.8 6.9 5.4 6.5 6.2 6.0 5.3 6.0 6.0 6.0 6.2 6.5 7.0 6.9 6.8 6.5 6.4 6.2 6.0 6.0 6.2 6.4 6.4 6.4 6.3 6.2 6.0 5.8 5.8 5.8 5.9 6.0 6.1 6.1 6.1 6.1 6.1 6.1 6.1 6.1 6.1
8.5 8.3 7.8 7.5 6.7 6.8 6.4 6.2 6.4 6.1 6.0 6.3 6.9 7.0 7.2 7.3 7.0 7.0 6.7 6.7 6.3 6.2 6.1 6.3 6.2 6.2 6.3 6.1 5.9 6.0 6.1 6.0 6.0 6.1 6.1 6.2 6.2 6.2 6.2 6.2 6.3 6.3 6.3
7.9 8.0 7.8 7.8 7.0 6.9 6.8 6.7 6.7 6.3 6.5 6.5 6.5 6.8 7.0 7.2 7.2 7.2 7.1 7.0 6.8 6.6 6.4 6.2 6.2 6.3 6.1 5.9 6.1 6.2 6.2 6.3 6.2 6.3 6.3 6.2 6.2 6.3 6.3 6.4 6.3 6.4 6.4
8.0 7.8 7.6 7.4 7.3 7.2 6.6 7.0 5.8 5.8 6.0 6.3 6.2 6.6 6.9 7.1 7.1 6.9 6.7 6.6 6.6 6.5 6.4 6.4 6.3 6.3 6.0 5.9 6.2 6.4 6.2 6.3 6.3 6.2 6.2 6.1 6.2 6.2 6.3 6.4 6.3 6.3 6.3
8.0 7.8 7.5 7.1 6.8 7.0 6.9 7.0 7.0 6.3 5.8 6.2 6.4 6.7 6.9 7.0 6.9 6.8 6.6 6.5 6.4 6.4 6.2 6.2 6.1 6.1 6.1 6.2 6.2 6.3 6.3 6.3 6.2 6.3 6.2 6.2 6.3 6.4 6.4 6.4 6.4 6.4 6.3
7.7 7.6 7.3 7.4 6.5 6.7 6.4 5.9 5.8 5.9 5.8 6.5 6.6 6.4 6.6 6.5 6.6 6.6 6.7 6.6 6.5 6.4 6.2 6.1 6.2 6.1 6.1 6.3 6.0 6.1 6.2 6.3 6.3 6.3 6.2 6.3 6.3 6.3 6.4 6.3 6.4 6.4 6.4
7.9 7.5 7.1 7.0 6.7 6.2 6.0 5.8 5.1 5.6 5.5 6.3 6.6 6.1 6.1 6.3 6.4 6.6 6.4 6.3 6.3 6.4 6.4 6.3 6.1 6.2 6.2 6.2 6.2 6.1 6.1 6.2 6.4 6.4 6.4 6.4 6.3 6.4 6.4 6.4 6.5 6.5 6.4
7.4 7.2 7.3 7.0 6.6 6.2 6.0 5.9 5.4 5.4 5.3 5.8 6.4 5.8 6.0 6.2 6.2 6.3 6.2 6.0 6.3 6.2 6.2 6.2 6.3 6.2 5.9 6.0 6.1 5.8 5.8 6.3 6.6 6.5 6.4 6.4 6.4 6.4 6.5 6.5 6.5 6.4 6.4
7.3 7.3 6.7 6.0 5.5 5.4 5.5 6.2 5.7 5.4 5.2 4.8 5.7 5.6 5.8 6.1 6.1 6.1 6.0 6.1 6.2 6.1 6.1 6.3 6.2 6.0 5.8 5.5 5.7 5.8 5.9 6.4 6.3 6.4 6.3 6.3 6.3 6.3 6.3 6.3 6.2 6.3 6.3
7.2 7.3 6.8 6.3 6.4 6.1 4.9 5.2 5.1 5.4 4.8 4.5 5.3 5.2 6.0 6.0 5.9 6.0 5.9 5.9 6.2 6.0 6.0 6.0 6.0 5.4 5.4 5.3 5.5 5.7 5.6 6.2 6.4 6.2 6.2 6.3 6.3 6.2 6.1 6.1 6.1 6.1 6.2
7.2 7.1 7.0 6.7 6.5 6.1 5.4 5.3 4.9 4.7 4.8 5.0 5.1 5.4 5.6 5.7 5.5 5.6 5.8 5.9 6.1 6.1 5.9 6.0 6.1 5.9 5.9 5.4 5.3 5.5 5.9 6.3 6.3 6.3 6.3 6.2 6.3 6.2 6.0 5.9 6.0 6.0 6.0
7.3 7.0 7.0 6.8 6.6 6.5 6.2 5.5 4.9 4.7 4.8 4.5 5.4 5.3 5.7 5.6 5.4 5.5 5.5 5.7 5.9 5.8 5.5 5.7 6.3 6.3 5.5 5.4 5.6 5.5 5.8 6.1 6.2 6.3 6.3 6.1 6.1 6.1 5.9 5.9 6.0 5.9 5.8
7.1 7.1 6.9 6.6 6.3 6.2 6.5 6.3 5.6 5.2 5.1 4.8 4.4 5.1 5.2 5.4 5.2 5.3 5.6 5.6 5.8 5.6 5.1 5.6 5.8 6.3 6.0 5.7 5.6 5.5 6.0 6.2 6.1 6.0 6.1 6.1 6.0 5.9 6.0 5.9 5.9 5.8 5.9
7.5 7.3 7.0 6.4 6.0 5.8 6.0 6.7 6.5 4.9 5.0 5.0 4.7 4.8 4.9 5.0 5.5 5.0 5.4 5.5 5.4 5.3 5.1 5.2 5.3 6.0 6.3 5.9 5.7 6.0 6.1 6.0 6.1 5.9 5.9 5.9 5.9 5.9 5.8 5.8 5.8 5.8 5.9
7.5 7.5 6.9 6.1 5.6 5.5 6.0 6.3 6.3 5.9 5.6 5.4 5.0 4.4 4.6 4.8 4.5 5.0 5.3 5.3 5.1 5.2 5.3 5.3 5.6 5.6 6.2 6.1 6.2 6.1 6.0 5.9 6.0 5.9 5.9 5.9 5.8 5.8 5.8 5.7 5.8 5.9 5.9
7.4 7.3 6.2 5.6 5.6 5.8 5.7 5.9 5.9 5.6 5.3 5.4 5.1 5.2 4.7 4.0 4.4 4.9 5.1 5.2 5.1 5.4 5.4 5.7 5.6 5.8 6.6 6.3 6.1 6.0 5.9 5.9 5.9 6.0 6.0 5.9 5.8 5.8 5.6 5.7 5.8 5.8 5.8
7.1 6.8 5.5 5.4 5.1 5.1 5.1 5.5 5.4 5.6 5.5 5.2 5.1 4.9 4.5 4.3 4.3 4.8 5.0 5.1 5.3 5.6 5.8 5.9 5.8 6.3 6.6 6.5 6.2 5.9 5.9 6.0 6.1 6.0 6.0 5.9 5.9 5.8 5.7 5.7 5.5 5.7 5.8
7.0 6.4 5.4 4.8 4.9 5.3 5.1 5.2 5.4 5.6 5.6 5.3 4.8 4.6 4.2 4.1 4.1 4.7 5.0 5.3 5.5 5.7 5.9 6.1 6.2 6.4 6.4 6.3 6.1 6.0 6.1 6.1 6.0 5.9 6.0 5.9 5.9 5.9 6.0 6.0 5.9 5.9 5.9
6.8 6.2 5.5 4.9 5.2 5.3 5.1 5.5 5.3 5.0 4.8 4.7 4.6 4.3 4.2 4.2 4.3 4.4 4.8 5.2 5.7 5.9 6.1 6.5 6.4 6.5 6.3 6.3 6.1 6.2 6.2 6.1 6.2 6.1 6.1 6.0 5.9 5.9 6.0 5.8 5.8 5.7 5.8
6.9 6.6 5.6 4.9 4.9 5.4 5.1 5.0 5.2 5.4 4.6 4.2 4.1 4.4 4.5 4.5 4.5 4.4 4.6 5.5 5.9 6.3 6.7 6.5 6.4 6.5 6.4 6.3 6.3 6.2 6.1 6.1 6.1 5.8 5.7 5.8 5.8 5.6 5.7 5.7 5.8 5.9 5.9
7.4 7.3 6.1 5.0 5.5 5.4 5.4 5.7 5.7 5.2 5.1 4.4 4.4 4.5 4.2 4.3 4.4 4.5 4.9 5.8 6.5 6.8 6.4 6.3 6.4 6.4 6.4 6.2 6.0 5.9 5.8 5.7 5.7 5.5 5.5 5.8 5.6 5.5 5.5 5.8 5.9 5.9 5.9
7.4 7.4 7.5 6.8 6.4 6.0 5.6 5.2 4.7 4.6 5.0 4.5 4.5 4.3 4.4 4.6 4.8 5.2 5.7 6.2 6.5 6.4 6.4 6.2 6.6 6.3 6.2 6.1 5.8 5.6 5.7 5.8 5.7 5.3 5.3 5.2 5.2 5.1 5.3 5.4 5.5 5.9 6.1
7.5 7.3 7.3 7.2 6.9 6.5 6.1 6.1 5.1 5.2 5.2 5.1 5.1 4.9 5.0 5.1 5.2 5.7 6.0 6.3 6.3 6.2 6.2 6.4 6.4 6.2 6.1 6.0 5.9 5.6 5.5 5.5 5.3 5.3 5.4 5.3 5.2 5.2 5.0 5.3 5.4 5.9 6.1
7.4 7.3 7.2 7.2 6.9 6.7 6.7 6.8 6.4 5.7 5.1 5.1 5.4 5.5 5.2 5.3 5.5 6.0 6.3 6.3 5.8 5.7 6.2 6.2 6.2 6.4 5.9 5.8 5.4 5.3 5.1 5.2 5.4 5.0 5.1 5.3 5.3 5.3 5.2 5.4 5.4 5.6 5.4
7.3 7.3 7.2 7.2 7.0 6.9 6.9 6.9 6.8 6.6 6.3 6.2 6.4 6.3 5.9 5.6 5.9 6.3 6.5 6.0 5.8 6.0 6.3 6.2 6.3 6.0 5.9 5.8 5.7 5.5 5.5 5.6 5.2 5.5 5.4 5.5 5.4 5.4 5.6 5.2 5.4 5.2 4.9
7.4 7.3 7.4 7.4 7.3 7.3 7.2 7.1 7.0 6.8 6.5 6.5 6.6 6.7 6.5 6.2 6.2 6.3 6.3 6.1 6.1 6.3 6.3 6.2 6.4 6.3 6.3 6.1 5.7 5.7 5.6 5.7 5.7 5.8 5.7 5.6 5.1 5.1 5.3 5.3 5.0 4.7 4.7
Wind_Speed
7 12 16 29 19 27 20 23 18 27 23 25 28 28 29 30 30 29 29 30 29 29 30 30 28 29 28 28 28 27 26 25 24 24 24 24 24 23 23 24 24 24 28
4 9 18 19 20 25 24 21 23 23 26 27 28 28 28 30 31 31 31 31 32 31 31 30 29 29 29 28 28 27 26 25 25 25 26 26 23 23 24 21 24 27 28
6 9 13 24 25 26 25 21 16 21 25 27 28 28 28 29 31 32 31 31 33 33 32 29 28 28 28 29 27 25 24 23 23 22 23 19 20 24 24 24 25 28 27
4 10 12 17 20 23 30 31 15 14 24 27 28 27 27 28 29 30 30 30 31 32 32 30 26 23 23 24 24 25 24 25 24 21 18 17 19 22 22 24 27 25 27
5 4 6 15 18 17 20 27 27 17 24 28 29 27 27 28 29 29 29 30 30 31 30 28 24 22 23 25 25 25 24 25 24 23 22 21 18 22 22 24 25 26 25
6 8 2 9 17 12 9 20 30 28 21 29 30 28 26 27 28 29 29 30 30 30 28 25 23 29 28 28 27 25 24 23 24 23 18 20 19 23 22 23 24 24 24
6 6 5 20 23 14 25 9 23 29 21 32 30 29 26 26 27 27 28 28 28 28 27 26 29 29 28 27 27 25 24 22 23 22 21 20 21 23 23 23 22 23 23
10 16 20 27 21 17 18 28 27 34 29 30 32 29 25 25 26 26 27 27 27 27 26 27 28 29 28 27 27 25 24 22 22 20 20 19 23 24 23 23 22 22 22
9 13 21 23 18 14 26 36 34 37 32 31 37 30 27 24 25 25 25 25 26 26 26 26 25 27 28 28 26 24 22 22 21 17 16 17 22 23 22 21 22 22 22
8 7 4 11 13 22 16 21 4 36 34 34 35 30 27 24 24 25 24 24 26 27 27 26 24 24 26 26 25 24 21 21 23 20 17 19 21 21 21 21 21 21 21
6 8 7 7 10 21 21 22 10 8 31 30 30 31 25 19 19 19 20 23 25 26 27 25 25 27 29 26 24 23 18 19 21 19 17 19 20 20 19 19 20 20 19
7 6 7 7 8 13 16 27 22 12 14 19 25 22 19 16 15 17 18 19 23 26 24 25 24 25 22 17 18 17 18 18 19 18 17 18 19 19 18 18 18 18 17
8 8 7 8 11 12 10 16 19 17 14 7 17 18 17 14 15 13 15 14 15 19 17 24 19 19 19 17 18 17 18 18 18 16 17 17 17 16 16 17 16 16 15
5 10 9 10 8 10 15 14 14 11 12 12 17 17 16 11 10 9 11 13 12 16 14 20 19 18 19 20 19 16 16 16 16 17 17 16 15 15 14 14 15 14 12
6 9 10 9 9 9 9 12 8 5 8 12 18 19 18 12 7 9 9 11 15 12 15 14 15 13 16 17 16 17 14 14 14 15 16 16 15 14 13 13 13 12 11
6 7 8 11 9 8 7 6 5 9 11 15 16 18 20 18 13 10 8 10 11 17 18 16 12 10 10 13 10 13 13 14 14 13 14 15 16 15 13 11 12 11 10
6 4 9 9 9 10 8 5 4 10 13 11 13 16 16 17 16 13 8 6 9 17 15 14 11 10 7 7 7 10 14 14 13 13 13 14 14 13 14 14 13 12 11
8 7 7 7 11 8 5 4 5 5 8 10 13 15 15 17 16 13 7 6 14 15 13 8 5 4 3 4 3 4 8 14 15 16 16 16 16 16 16 17 16 13 11
7 7 8 8 10 10 7 5 6 5 7 8 11 12 13 17 15 13 8 8 13 9 6 5 2 4 3 3 3 3 5 6 12 12 14 15 16 16 17 17 17 13 13
6 6 8 8 9 8 7 5 3 4 5 8 9 12 14 13 15 11 8 9 11 5 4 4 3 2 3 3 2 3 3 3 4 7 9 11 14 17 19 18 17 17 16
8 8 9 11 10 9 7 8 4 4 3 3 4 8 9 14 15 13 7 6 8 5 6 5 3 4 2 3 3 1 2 4 4 3 6 9 11 16 19 20 21 19 19
10 10 10 10 11 10 8 6 4 4 2 3 3 6 9 10 7 8 7 5 7 4 5 6 5 3 3 4 3 2 2 2 3 5 4 5 8 11 14 20 21 20 21
9 11 9 8 9 8 5 5 2 3 2 1 2 2 3 3 7 12 13 9 7 5 4 4 5 6 4 3 3 3 1 4 1 2 6 5 5 4 10 16 19 20 22
11 9 9 8 6 5 6 5 6 8 8 4 2 2 3 9 11 14 14 14 8 7 7 6 6 4 4 4 1 1 2 3 3 2 2 3 4 5 5 10 12 17 20
11 11 10 10 9 9 7 6 6 5 4 2 3 5 4 4 12 14 14 12 6 5 6 7 6 7 6 4 3 2 1 1 1 1 3 2 2 2 4 9 12 13 14
9 11 11 13 12 12 10 10 10 11 9 7 5 7 7 4 6 11 14 12 10 7 7 8 9 9 8 5 4 4 4 3 3 3 2 3 3 2 3 3 4 8 13
Wind_Direction
175 164 143 132 141 114 99 108 111 114 120 117 121 125 125 124 121 119 115 112 111 111 109 107 106 106 103 101 96 91 87 92 89 88 87 85 82 80 79 74 74 76 77
210 172 145 121 120 110 114 118 120 126 130 131 130 130 129 126 126 123 119 119 118 114 112 110 107 104 104 102 99 95 90 81 82 84 84 83 86 87 87 80 78 80 76
153 165 149 133 133 124 117 102 109 137 135 134 132 133 133 133 130 126 125 124 120 119 116 114 113 110 106 104 102 100 92 86 81 82 89 88 85 85 85 81 77 74 74
296 165 153 146 139 142 133 124 132 155 139 138 133 137 136 133 129 124 124 123 120 119 118 116 113 114 120 115 109 105 98 93 85 76 67 80 85 84 82 81 77 77 73
249 337 144 149 140 138 139 139 141 164 154 143 138 139 138 134 128 125 124 122 121 119 117 114 114 116 111 120 109 104 101 96 90 84 83 82 84 84 80 78 79 75 78
216 238 261 175 158 76 156 158 150 159 173 143 140 140 141 136 130 127 126 124 122 119 115 110 115 119 113 111 108 106 104 100 95 93 90 91 90 91 89 84 82 84 80
165 168 206 109 74 63 42 287 158 152 175 147 140 140 143 136 129 126 123 118 117 117 112 109 117 117 114 112 112 111 107 102 97 91 89 91 94 94 90 89 89 84 83
82 104 102 102 85 62 3 313 174 159 175 149 139 142 140 136 128 123 118 116 114 113 112 109 117 120 119 117 116 114 111 106 99 95 95 93 98 96 94 92 91 90 85
86 111 122 119 107 57 31 35 182 164 163 162 141 140 138 134 127 122 119 118 113 112 110 104 110 124 123 120 117 115 114 111 105 98 98 99 104 102 102 100 97 94 91
97 100 104 123 132 98 59 33 277 163 174 155 135 133 131 130 126 124 121 119 115 114 107 100 105 124 125 122 121 119 116 114 109 108 107 109 109 106 106 106 101 99 96
110 137 141 135 135 132 133 122 114 243 144 133 122 124 125 126 128 124 127 125 118 111 108 103 105 123 129 128 125 122 119 122 118 117 115 117 116 115 112 108 106 101 95
124 122 144 143 132 125 131 140 152 165 189 133 126 126 124 129 129 123 119 115 114 110 102 98 102 109 117 124 120 119 125 127 124 122 122 123 123 122 120 116 111 106 100
135 131 133 136 143 145 133 139 147 175 167 98 121 126 125 124 118 117 115 110 107 102 95 102 100 100 124 124 125 131 135 135 133 129 130 128 126 127 127 123 113 110 107
148 142 144 145 152 144 148 150 167 161 152 142 125 133 133 126 116 129 126 128 118 104 114 105 99 110 113 129 135 136 142 142 142 143 140 136 137 134 132 131 122 121 118
125 148 155 150 156 153 148 162 164 148 144 140 154 154 136 133 142 137 136 133 114 134 109 110 115 121 114 127 140 143 143 148 157 154 154 151 147 146 145 144 142 139 138
121 142 163 161 156 154 155 148 155 155 150 147 156 153 148 151 156 145 146 127 141 129 123 134 133 120 123 130 131 147 152 158 163 163 169 170 165 162 159 163 164 165 163
132 131 151 155 150 159 155 129 135 156 150 152 144 147 150 152 153 155 139 132 164 133 139 126 125 131 127 131 132 148 157 170 169 176 181 183 181 176 177 181 187 187 187
136 140 126 156 146 145 118 110 124 131 147 138 142 147 152 149 151 139 146 174 147 137 150 140 143 133 139 153 145 166 168 178 181 186 187 186 188 192 195 196 199 199 196
155 144 144 136 150 150 149 135 104 88 101 129 130 144 157 149 155 150 170 181 147 149 167 157 156 141 164 175 192 189 197 187 189 187 193 192 198 202 204 206 204 196 188
159 146 138 148 143 138 147 126 99 94 100 128 141 153 162 156 171 157 175 167 171 168 160 171 151 149 162 166 191 214 218 282 247 204 201 200 207 207 211 207 201 193 198
162 158 153 157 152 153 158 160 162 148 121 110 137 151 171 171 177 177 191 171 181 178 186 167 133 172 174 144 116 351 277 244 242 230 214 215 211 214 209 211 208 205 207
161 171 168 162 162 175 168 183 168 145 116 110 135 177 196 177 165 166 183 199 189 168 160 169 163 154 193 176 159 135 225 295 243 223 223 202 211 214 215 217 215 217 217
179 172 166 172 173 163 147 150 92 63 24 243 179 217 204 197 209 212 212 195 194 168 180 181 180 183 178 191 200 155 154 226 85 183 215 212 193 201 231 225 221 222 223
190 178 165 165 172 167 150 154 174 197 205 212 195 216 220 218 222 223 220 210 180 183 199 198 192 191 152 184 85 115 45 124 196 286 277 229 184 209 219 241 233 233 236
181 182 180 175 177 188 172 174 177 186 206 220 225 238 228 217 224 220 210 211 206 190 200 191 181 200 200 170 174 167 144 61 57 155 232 244 273 249 218 201 216 226 235
182 186 186 186 192 194 188 190 188 196 198 208 217 225 234 227 225 223 219 214 208 198 196 201 208 202 201 182 170 169 167 166 181 190 212 219 202 250 242 202 225 239 246